Retour au catalogue

COSMOS 1855

ActifMilitaireLEO
NORAD 18116·PAYLOAD·🇷🇺 Russia

Lancé Jun 16, 1987 depuis Plesetsk Cosmodrome

Loading…

Prochains Passages (prochaines 24 heures)

TLE

FraisSource: Space-Track

Époque: Sep 14, 2026, 11:20 UTC

1 18116U 87051D   26257.47257130  .00000009  00000-0  16126-3 0  9997
2 18116  74.0050 158.8240 0019544 181.5049 289.5866 12.50734032791978

Suivez COSMOS 1855 en temps réel avec AllMySat

Download on the App Store